1359676832342,1.65098
1359676892342,1.64271
1359676952342,1.62322
1359677012342,1.63891
1359677072342,1.64109
1359677132342,1.65102
1359677192342,1.65208
1359677252342,1.63074
1359677312342,1.64251
1359677372342,1.63889
1359677432342,1.63552
1359677492342,1.64579
1359677552342,1.63203
1359677612342,1.60903
1359677672342,1.63119
1359677732342,1.63368
1359677792342,1.63552
1359677852342,1.64884
1359677912342,1.61977
1359677972342,1.62395
1359678032342,1.65785
1359678092342,1.63946
1359678152342,1.63305
1359678212342,1.64157
1359678272342,1.63585
1359678332342,1.64869
1359678392342,1.63201
1359678452342,1.61932
1359678512342,1.64075
1359678572342,1.63133
1359678632342,1.64232
1359678692342,1.63019
1359678752342,1.64155
1359678812342,1.65230
1359678872342,1.64104
1359678932342,1.63425
1359678992342,1.63836
1359679052342,1.62816
1359679112342,1.61601
1359679172342,1.64491
1359679232342,1.64841
1359679292342,1.62867
1359679352342,1.63954
1359679412342,1.63667
1359679472342,1.60883
1359679532342,1.64497
1359679592342,1.64153
1359679652342,1.63532
1359679712342,1.63165
1359679772342,1.62929
1359679832342,1.62960
1359679892342,1.64208
1359679952342,1.61414
1359680012342,1.64468
1359680072342,1.62548
1359680132342,1.63940
1359680192342,1.61192
1359680252342,1.61319
1359680312342,1.64137
1359680372342,1.61678
1359680432352,1.65659
1359680492352,1.63588
1359680552352,1.63854
1359680612352,1.63954
1359680672352,1.63352
1359680732352,1.62022
1359680792352,1.66593
1359680852352,1.63273
1359680912352,1.65033
1359680972352,1.65838
1359681032352,1.60856
1359681092352,1.61982
1359681152352,1.61871
1359681212352,1.62817
1359681272352,1.69128
1359681332352,1.65122
1359681392352,1.65234
1359681452352,1.63045
1359681512352,1.61612
1359681572352,1.64178
1359681632352,1.61989
1359681692352,1.63424
1359681752352,1.61142
1359681812352,1.62582
1359681872352,1.66360
1359681932352,1.63148
1359681992352,1.61827
1359682052352,1.63968
1359682112352,1.63225
1359682172352,1.64424
1359682232352,1.61897
1359682292352,1.64410
1359682352352,1.64695
1359682412352,1.63455
1359682472352,1.63478
1359682532352,1.63902
1359682592352,1.64800
1359682652352,1.64285
1359682712352,1.64681
1359682772352,1.64542
1359682832352,1.62949
1359682892352,1.64107
1359682952352,1.66335
1359683012352,1.64297
1359683072352,1.66208
1359683132352,1.63885
1359683192352,1.63202
1359683252352,1.61842
1359683312352,1.61633
1359683372352,1.62796
1359683432352,1.64891
1359683492352,1.63239
1359683552352,1.61952
1359683612352,1.63142
1359683672352,1.63693
1359683732352,1.62783
1359683792352,1.63187
1359683852352,1.65404
1359683912352,1.63007
1359683972352,1.64738
1359684032362,1.62983
1359684092362,1.65014
1359684152362,1.62537
1359684212362,1.63158
1359684272362,1.63406
1359684332362,1.62644
1359684392362,1.64943
1359684452362,1.62527
1359684512362,1.70953
1359684572362,1.61914
1359684632362,1.64576
1359684692362,1.63239
1359684752362,1.65147
1359684812362,1.63281
1359684872362,1.62679
1359684932362,1.62465
1359684992362,1.66077
1359685052362,1.63759
1359685112362,1.63789
1359685172362,1.61997
1359685232362,1.64519
1359685292362,1.69245
1359685352362,1.63593
1359685412362,1.63538
1359685472362,1.61357
1359685532362,1.64980
1359685592362,1.64218
1359685652362,1.62514
1359685712362,1.62751
1359685772362,1.64308
1359685832362,1.61523
1359685892362,1.64363
1359685952362,1.63018
1359686012362,1.63627
1359686072362,1.64571
1359686132362,1.65753
1359686192362,1.63434
1359686252362,1.63176
1359686312362,1.64502
1359686372362,1.64349
1359686432362,1.62768
1359686492362,1.64543
1359686552362,1.63109
1359686612362,1.64070
1359686672362,1.63203
1359686732362,1.63014
1359686792362,1.61254
1359686852362,1.65032
1359686912362,1.64727
1359686972362,1.62996
1359687032362,1.61939
1359687092362,1.66880
1359687152362,1.63263
1359687212362,1.63564
1359687272362,1.63194
1359687332362,1.62060
1359687392362,1.65164
1359687452362,1.63936
1359687512362,1.61347
1359687572362,1.64133
1359687632373,1.62435
1359687692373,1.64766
1359687752373,1.64606
1359687812373,1.62440
1359687872373,1.64039
1359687932373,1.63497
1359687992373,1.64402
1359688052373,1.63858
1359688112373,1.63325
1359688172373,1.66908
1359688232373,1.65122
1359688292373,1.64981
1359688352373,1.64272
1359688412373,1.63580
1359688472373,1.61024
1359688532373,1.62034
1359688592373,1.60701
1359688652373,1.65162
1359688712373,1.64576
1359688772373,1.61000
1359688832373,1.61435
1359688892373,1.68316
1359688952373,1.64881
1359689012373,1.64059
1359689072373,1.61717
1359689132373,1.63163
1359689192373,1.62597
1359689252373,1.64308
1359689312373,1.63590
1359689372373,1.63602
1359689432373,1.64484
1359689492373,1.65350
1359689552373,1.64618
1359689612373,1.64925
1359689672373,1.64024
1359689732373,1.62587
1359689792373,1.62786
1359689852373,1.65169
1359689912373,1.62828
1359689972373,1.65118
1359690032373,1.64174
1359690092373,1.66129
1359690152373,1.64799
1359690212373,1.66462
1359690272373,1.68771
1359690332373,1.64271
1359690392373,1.66526
1359690452373,1.64460
1359690512373,1.66227
1359690572373,1.66717
1359690632373,1.64689
1359690692373,1.65715
1359690752373,1.64807
1359690812373,1.67229
1359690872373,1.63488
1359690932373,1.64515
1359690992373,1.66644
1359691052373,1.66263
1359691112373,1.64938
1359691172373,1.66876
1359691232383,1.64185
1359691292383,1.65447
1359691352383,1.62677
1359691412383,1.63190
1359691472383,1.65858
1359691532383,1.62157
1359691592383,1.64014
1359691652383,1.64352
1359691712383,1.63383
1359691772383,1.64112
1359691832383,1.64302
1359691892383,1.64514
1359691952383,1.63525
1359692012383,1.65803
1359692072383,1.63794
1359692132383,1.63823
1359692192383,1.65048
1359692252383,1.64405
1359692312383,1.65362
1359692372383,1.67906
1359692432383,1.63762
1359692492383,1.64456
1359692552383,1.64196
1359692612383,1.62866
1359692672383,1.64399
1359692732383,1.63647
1359692792383,1.65149
1359692852383,1.65150
1359692912383,1.66031
1359692972383,1.64519
1359693032383,1.64598
1359693092383,1.66955
1359693152383,1.64627
1359693212383,1.62144
1359693272383,1.64402
1359693332383,1.65960
1359693392383,1.65136
1359693452383,1.62993
1359693512383,1.63832
1359693572383,1.64633
1359693632383,1.66458
1359693692383,1.65380
1359693752383,1.63931
1359693812383,1.64991
1359693872383,1.64979
1359693932383,1.64839
1359693992383,1.64847
1359694052383,1.62418
1359694112383,1.65682
1359694172383,1.65635
1359694232383,1.65383
1359694292383,1.64293
1359694352383,1.63842
1359694412383,1.67641
1359694472383,1.63278
1359694532383,1.63364
1359694592383,1.65278
1359694652383,1.66383
1359694712383,1.65469
1359694772383,1.65750
1359694832394,1.65643
1359694892394,1.64479
1359694952394,1.63893
1359695012394,1.64509
1359695072394,1.64361
1359695132394,1.62852
1359695192394,1.63372
1359695252394,1.66050
1359695312394,1.63421
1359695372394,1.65060
1359695432394,1.66432
1359695492394,1.65571
1359695552394,1.66888
1359695612394,1.64560
1359695672394,1.66859
1359695732394,1.64604
1359695792394,1.66310
1359695852394,1.65855
1359695912394,1.64480
1359695972394,1.63603
1359696032394,1.63265
1359696092394,1.65024
1359696152394,1.68720
1359696212394,1.65433
1359696272394,1.65446
1359696332394,1.66374
1359696392394,1.63601
1359696452394,1.64848
1359696512394,1.65012
1359696572394,1.64838
1359696632394,1.64787
1359696692394,1.66552
1359696752394,1.65161
1359696812394,1.64085
1359696872394,1.63859
1359696932394,1.61851
1359696992394,1.62107
1359697052394,1.65254
1359697112394,1.64512
1359697172394,1.65415
1359697232394,1.66443
1359697292394,1.64864
1359697352394,1.66142
1359697412394,1.66404
1359697472394,1.64782
1359697532394,1.64883
1359697592394,1.63592
1359697652394,1.65700
1359697712394,1.62328
1359697772394,1.63928
1359697832394,1.65863
1359697892394,1.66273
1359697952394,1.64429
1359698012394,1.66146
1359698072394,1.64927
1359698132394,1.65531
1359698192394,1.63062
1359698252394,1.64065
1359698312394,1.63408
1359698372394,1.64931
1359698432405,1.64918
1359698492405,1.64595
1359698552405,1.64336
1359698612405,1.64842
1359698672405,1.64906
1359698732405,1.65601
1359698792405,1.61815
1359698852405,1.63701
1359698912405,1.65495
1359698972405,1.63488
1359699032405,1.64419
1359699092405,1.64771
1359699152405,1.67567
1359699212405,1.64814
1359699272405,1.64187
1359699332405,1.65413
1359699392405,1.69913
1359699452405,1.64908
1359699512405,1.65490
1359699572405,1.64635
1359699632405,1.65115
1359699692405,1.66569
1359699752405,1.65185
1359699812405,1.63790
1359699872405,1.66201
1359699932405,1.65331
1359699992405,1.65252
1359700052405,1.66548
1359700112405,1.65140
1359700172405,1.65880
1359700232405,1.65791
1359700292405,1.65994
1359700352405,1.63791
1359700412405,1.65189
1359700472405,1.65148
1359700532405,1.66595
1359700592405,1.65130
1359700652405,1.65842
1359700712405,1.66420
1359700772405,1.66337
1359700832405,1.64805
1359700892405,1.65249
1359700952405,1.65950
1359701012405,1.66917
1359701072405,1.65550
1359701132405,1.65884
1359701192405,1.65313
1359701252405,1.65261
1359701312405,1.64959
1359701372405,1.76603
1359701432405,1.72330
1359701492405,1.65843
1359701552405,1.65937
1359701612405,1.65652
1359701672405,1.65647
1359701732405,1.64855
1359701792405,1.63662
1359701852405,1.65811
1359701912405,1.65373
1359701972405,1.65537
1359702032416,1.65921
1359702092416,1.66292
1359702152416,1.66908
1359702212416,1.65477
1359702272416,1.67332
1359702332416,1.65306
1359702392416,1.66318
1359702452416,1.66085
1359702512416,1.64303
1359702572416,1.63647
1359702632416,1.65862
1359702692416,1.65439
1359702752416,1.65744
1359702812416,1.66327
1359702872416,1.66446
1359702932416,1.67109
1359702992416,1.65835
1359703052416,1.65355
1359703112416,1.64643
1359703172416,1.68038
1359703232416,1.66191
1359703292416,1.66264
1359703352416,1.53694
1359703412416,1.67355
1359703472416,1.66569
1359703532416,1.67601
1359703592416,1.66348
1359703652416,1.67717
1359703712416,1.66974
1359703772416,1.65099
1359703832416,1.67476
1359703892416,1.67806
1359703952416,1.65224
1359704012416,1.67383
1359704072416,1.67243
1359704132416,1.66692
1359704192416,1.68153
1359704252416,1.65617
1359704312416,1.67480
1359704372416,1.64550
1359704432416,1.65690
1359704492416,1.66754
1359704552416,1.68310
1359704612416,1.68410
1359704672416,1.66917
1359704732416,1.66474
1359704792416,1.67452
1359704852416,1.65387
1359704912416,1.63854
1359704972416,1.65532
1359705032416,1.67345
1359705092416,1.66511
1359705152416,1.67200
1359705212416,1.65783
1359705272416,1.68953
1359705332416,1.66329
1359705392416,1.67373
1359705452416,1.67388
1359705512416,1.67132
1359705572416,1.63985
1359705632427,1.65305
1359705692427,1.65526
1359705752427,1.65030
1359705812427,1.65062
1359705872427,1.66003
1359705932427,1.66537
1359705992427,1.70679
1359706052427,1.69744
1359706112427,1.68281
1359706172427,1.65500
1359706232427,1.67671
1359706292427,1.65460
1359706352427,1.66121
1359706412427,1.67274
1359706472427,1.65190
1359706532427,1.67913
1359706592427,1.67747
1359706652427,1.67439
1359706712427,1.64448
1359706772427,1.64982
1359706832427,1.64120
1359706892427,1.68198
1359706952427,1.64512
1359707012427,1.68122
1359707072427,1.66204
1359707132427,1.67221
1359707192427,1.64617
1359707252427,1.65993
1359707312427,1.64918
1359707372427,1.67623
1359707432427,1.66417
1359707492427,1.66365
1359707552427,1.67178
1359707612427,1.68432
1359707672427,1.66749
1359707732427,1.67831
1359707792427,1.68026
1359707852427,1.65229
1359707912427,1.65956
1359707972427,1.66980
1359708032427,1.67675
1359708092427,1.66461
1359708152427,1.65404
1359708212427,1.67326
1359708272427,1.66423
1359708332427,1.67613
1359708392427,1.67543
1359708452427,1.68365
1359708512427,1.66711
1359708572427,1.66561
1359708632427,1.75983
1359708692427,1.68336
1359708752427,1.67449
1359708812427,1.68813
1359708872427,1.68435
1359708932427,1.66808
1359708992427,1.65539
1359709052427,1.69302
1359709112427,1.65668
1359709172427,1.66358
1359709232438,1.66012
1359709292438,1.66478
1359709352438,1.68827
1359709412438,1.68530
1359709472438,1.67402
1359709532438,1.67526
1359709592438,1.66615
1359709652438,1.69351
1359709712438,1.69021
1359709772438,1.67407
1359709832438,1.67797
1359709892438,1.69149
1359709952438,1.67348
1359710012438,1.68166
1359710072438,1.69650
1359710132438,1.68170
1359710192438,1.67530
1359710252438,1.68919
1359710312438,1.66196
1359710372438,1.68557
1359710432438,1.68023
1359710492438,1.65864
1359710552438,1.67941
1359710612438,1.66735
1359710672438,1.67559
1359710732438,1.66654
1359710792438,1.67404
1359710852438,1.68761
1359710912438,1.68358
1359710972438,1.68157
1359711032438,1.69526
1359711092438,1.67471
1359711152438,1.67275
1359711212438,1.70683
1359711272438,1.67284
1359711332438,1.66967
1359711392438,1.67418
1359711452438,1.74656
1359711512438,1.65446
1359711572438,1.66820
1359711632438,1.68261
1359711692438,1.67764
1359711752438,1.67617
1359711812438,1.67712
1359711872438,1.67496
1359711932438,1.66402
1359711992438,1.68278
1359712052438,1.67156
1359712112438,1.68039
1359712172438,1.65793
1359712232438,1.65853
1359712292438,1.67972
1359712352438,1.68701
1359712412438,1.67928
1359712472438,1.67796
1359712532438,1.66054
1359712592438,1.69355
1359712652438,1.66832
1359712712438,1.69095
1359712772438,1.67389
1359712832449,1.68976
1359712892449,1.66700
1359712952449,1.64039
1359713012449,1.66732
1359713072449,1.68725
1359713132449,1.68015
1359713192449,1.68282
1359713252449,1.69465
1359713312449,1.67914
1359713372449,1.65470
1359713432449,1.67581
1359713492449,1.66598
1359713552449,1.68101
1359713612449,1.75325
1359713672449,1.67207
1359713732450,1.66859
1359713792450,1.68786
1359713852450,1.66921
1359713912449,1.68886
1359713972449,1.67844
1359714032449,1.68100
1359714092449,1.65575
1359714152449,1.67216
1359714212449,1.66664
1359714272449,1.65769
1359714332449,1.67143
1359714392449,1.84308
1359714452449,1.65803
1359714512449,1.70049
1359714572449,1.65995
1359714632449,1.66878
1359714692449,1.66114
1359714752449,1.69433
1359714812449,1.68115
1359714872449,1.81310
1359714932449,1.66981
1359714992449,1.66444
1359715052450,1.68264
1359715112450,1.66789
1359715172450,1.67646
1359715232449,1.69392
1359715292449,1.68492
1359715352449,1.68248
1359715412449,1.67504
1359715472449,1.66827
1359715532449,1.67445
1359715592449,1.67153
1359715652449,1.74377
1359715712449,1.66959
1359715772449,1.66477
1359715832449,1.66086
1359715892449,1.67197
1359715952449,1.68306
1359716012449,1.68271
1359716072449,1.67321
1359716132449,1.68325
1359716192449,1.67803
1359716252449,1.67621
1359716312449,1.70165
1359716372449,1.67035
1359716432461,1.68853
1359716492461,1.67630
1359716552461,1.66177
1359716612461,1.66967
1359716672461,1.66874
1359716732461,1.69014
1359716792461,1.68400
1359716852461,1.67600
1359716912461,1.66936
1359716972461,1.66635
1359717032461,1.66346
1359717092461,1.66811
1359717152461,1.68936
1359717212461,1.66492
1359717272461,1.66540
1359717332461,1.67007
1359717392461,1.68343
1359717452461,1.66097
1359717512461,1.67072
1359717572461,1.66509
1359717632461,1.69020
1359717692461,1.70115
1359717752461,1.69203
1359717812461,1.66587
1359717872461,1.67675
1359717932461,1.68477
1359717992461,1.67546
1359718052461,1.67767
1359718112461,1.67131
1359718172461,1.64661
1359718232461,1.67339
1359718292461,1.66605
1359718352461,1.65995
1359718412461,1.69636
1359718472461,1.67726
1359718532461,1.66614
1359718592461,1.68329
1359718652461,1.67581
1359718712461,1.66272
1359718772461,1.69559
1359718832461,1.66255
1359718892461,1.69009
1359718952461,1.68308
1359719012461,1.69302
1359719072461,1.68055
1359719132461,1.68575
1359719192461,1.66722
1359719252461,1.68201
1359719312461,1.69547
1359719372461,1.66852
1359719432461,1.69038
1359719492461,1.66884
1359719552461,1.67048
1359719612461,1.69347
1359719672461,1.70151
1359719732461,1.66367
1359719792461,1.66593
1359719852461,1.69368
1359719912461,1.67226
1359719972461,1.67682
1359720032472,1.67313
1359720092472,1.69187
1359720152472,1.66572
1359720212472,1.68510
1359720272472,1.68474
1359720332472,1.69534
1359720392472,1.66054
1359720452472,1.67437
1359720512472,1.67599
1359720572472,1.68034
1359720632472,1.68703
1359720692472,1.67961
1359720752472,1.67899
1359720812472,1.67927
1359720872472,1.66659
1359720932472,1.68127
1359720992472,1.67157
1359721052472,1.67636
1359721112472,1.69329
1359721172472,1.66308
1359721232472,1.68549
1359721292472,1.69547
1359721352472,1.66380
1359721412472,1.70104
1359721472472,1.67219
1359721532472,1.67223
1359721592472,1.67971
1359721652472,1.69702
1359721712472,1.68031
1359721772472,1.68954
1359721832472,1.64707
1359721892472,1.70592
1359721952472,1.68431
1359722012472,1.68457
1359722072472,1.68681
1359722132472,1.67037
1359722192472,1.67415
1359722252472,1.67248
1359722312472,1.67288
1359722372472,1.66080
1359722432472,1.69187
1359722492472,1.66627
1359722552472,1.67627
1359722612472,1.67212
1359722672472,1.66386
1359722732472,1.68739
1359722792472,1.68876
1359722852472,1.66441
1359722912472,1.68993
1359722972472,1.77304
1359723032472,1.68958
1359723092472,1.66944
1359723152472,1.59519
1359723212472,1.69354
1359723272472,1.67235
1359723332472,1.69806
1359723392472,1.68301
1359723452472,1.68716
1359723512472,1.67470
1359723572472,1.67927
1359723632483,1.67810
1359723692483,1.69174
1359723752483,1.66890
1359723812483,1.66836
1359723872483,1.67451
1359723932483,1.68555
1359723992483,1.69904
1359724052483,1.67294
1359724112483,1.68304
1359724172483,1.68360
1359724232483,1.70180
1359724292483,1.70658
1359724352483,1.67544
1359724412483,1.68756
1359724472483,1.66712
1359724532483,1.68444
1359724592483,1.66313
1359724652483,1.66132
1359724712483,1.67290
1359724772483,1.67140
1359724832483,1.69275
1359724892483,1.67786
1359724952483,1.67316
1359725012483,1.69543
1359725072483,1.68933
1359725132483,1.68498
1359725192483,1.70421
1359725252483,1.67455
1359725312483,1.70120
1359725372483,1.70682
1359725432483,1.68885
1359725492483,1.69896
1359725552483,1.68039
1359725612483,1.67069
1359725672483,1.67135
1359725732483,1.68871
1359725792483,1.68659
1359725852483,1.69560
1359725912483,1.70777
1359725972483,1.70611
1359726032483,1.67798
1359726092483,1.67348
1359726152483,1.69809
1359726212483,1.66292
1359726272483,1.70389
1359726332483,1.68112
1359726392483,1.69575
1359726452483,1.68973
1359726512483,1.71986
1359726572483,1.72008
1359726632483,1.68677
1359726692483,1.70552
1359726752483,1.67738
1359726812483,1.71147
1359726872483,1.68718
1359726932483,1.67409
1359726992483,1.69058
1359727052483,1.68994
1359727112483,1.67874
1359727172483,1.69315
1359727232494,1.69711
1359727292495,1.68695
1359727352495,1.69623
1359727412495,1.71373
1359727472495,1.67169
1359727532495,1.71809
1359727592495,1.69336
1359727652495,1.71019
1359727712495,1.67032
1359727772495,1.69432
1359727832495,1.70707
1359727892495,1.69166
1359727952495,1.70916
1359728012495,1.68439
1359728072495,1.69927
1359728132495,1.70318
1359728192495,1.69360
1359728252495,1.69591
1359728312495,1.70455
1359728372495,1.70688
1359728432494,1.68735
1359728492494,1.68405
1359728552494,1.68911
1359728612494,1.65587
1359728672495,1.65958
1359728732495,1.67841
1359728792495,1.70248
1359728852495,1.67441
1359728912495,1.71862
1359728972495,1.70248
1359729032495,1.68858
1359729092495,1.70282
1359729152495,1.69426
1359729212495,1.69566
1359729272495,1.68432
1359729332495,1.68700
1359729392495,1.70046
1359729452495,1.70731
1359729512495,1.70461
1359729572495,1.68769
1359729632495,1.68990
1359729692495,1.69453
1359729752495,1.69630
1359729812494,1.69838
1359729872494,1.67476
1359729932494,1.67965
1359729992495,1.67315
1359730052495,1.68947
1359730112495,1.70031
1359730172495,1.70290
1359730232495,1.68121
1359730292495,1.67822
1359730352495,1.69343
1359730412495,1.69385
1359730472495,1.67782
1359730532495,1.69403
1359730592495,1.68367
1359730652495,1.67580
1359730712495,1.66876
1359730772495,1.68858
1359730832506,1.67724
1359730892506,1.72234
1359730952506,1.71651
1359731012506,1.70758
1359731072506,1.69549
1359731132506,1.69356
1359731192506,1.68488
1359731252506,1.70638
1359731312506,1.67986
1359731372506,1.68113
1359731432506,1.68461
1359731492506,1.67442
1359731552506,1.68211
1359731612506,1.68566
1359731672506,1.69340
1359731732506,1.69849
1359731792506,1.69782
1359731852506,1.69677
1359731912506,1.70651
1359731972506,1.70056
1359732032506,1.67437
1359732092506,1.67788
1359732152506,1.68334
1359732212506,1.69965
1359732272506,1.69387
1359732332506,1.69230
1359732392506,1.67847
1359732452506,1.68967
1359732512506,1.68819
1359732572506,1.68257
1359732632506,1.67003
1359732692506,1.68587
1359732752506,1.68224
1359732812506,1.67774
1359732872506,1.67437
1359732932506,1.70167
1359732992506,1.69127
1359733052506,1.69391
1359733112506,1.68315
1359733172506,1.67923
1359733232506,1.66949
1359733292506,1.67796
1359733352506,1.68659
1359733412506,1.68214
1359733472506,1.67378
1359733532506,1.67364
1359733592506,1.71100
1359733652506,1.67518
1359733712506,1.67384
1359733772506,1.69795
1359733832506,1.69349
1359733892506,1.67148
1359733952506,1.68108
1359734012506,1.70249
1359734072506,1.69225
1359734132506,1.68554
1359734192506,1.66224
1359734252506,1.69941
1359734312506,1.68364
1359734372506,1.68105
1359734432517,1.68436
1359734492517,1.67495
1359734552517,1.67215
1359734612517,1.66907
1359734672517,1.68186
1359734732517,1.70024
1359734792517,1.66951
1359734852517,1.67663
1359734912517,1.67389
1359734972517,1.67611
1359735032517,1.69356
1359735092517,1.67756
1359735152517,1.67900
1359735212517,1.69730
1359735272517,1.70313
1359735332517,1.69092
1359735392517,1.67305
1359735452517,1.67887
1359735512517,1.69493
1359735572517,1.68811
1359735632517,1.67489
1359735692517,1.70512
1359735752517,1.68480
1359735812517,1.68990
1359735872517,1.69619
1359735932517,1.66475
1359735992517,1.68898
1359736052517,1.66932
1359736112517,1.70353
1359736172517,1.69334
1359736232517,1.67004
1359736292517,1.68370
1359736352517,1.69225
1359736412517,1.69203
1359736472517,1.69725
1359736532517,1.69639
1359736592517,1.85661
1359736652517,1.68058
1359736712517,1.69019
1359736772517,1.69039
1359736832517,1.67036
1359736892517,1.69334
1359736952517,1.69084
1359737012517,1.72804
1359737072517,1.68335
1359737132517,1.70951
1359737192517,1.69300
1359737252517,1.69785
1359737312517,1.68809
1359737372517,1.69041
1359737432517,1.69430
1359737492517,1.69064
1359737552517,1.69603
1359737612517,1.70231
1359737672517,1.69704
1359737732517,1.70059
1359737792517,1.71563
1359737852517,1.69456
1359737912517,1.68484
1359737972517,1.69998
1359738032528,1.70786
1359738092528,1.71355
1359738152528,1.69997
1359738212528,1.69510
1359738272528,1.67574
1359738332528,1.68527
1359738392528,1.69076
1359738452528,1.71338
1359738512528,1.67631
1359738572528,1.68816
1359738632528,1.70588
1359738692528,1.70102
1359738752528,1.68937
1359738812528,1.70925
1359738872528,1.70184
1359738932528,1.70639
1359738992528,1.70491
1359739052528,1.69374
1359739112528,1.70926
1359739172528,1.67714
1359739232528,1.67640
1359739292528,1.69843
1359739352528,1.70276
1359739412528,1.70165
1359739472528,1.75165
1359739532528,1.70423
1359739592528,1.71085
1359739652528,1.70604
1359739712528,1.72387
1359739772528,1.72638
1359739832528,1.70269
1359739892528,1.70527
1359739952528,1.70764
1359740012528,1.69473
1359740072528,1.67383
1359740132528,1.67574
1359740192528,1.70487
1359740252528,1.69481
1359740312528,1.71009
1359740372528,1.69369
1359740432528,1.70233
1359740492528,1.73191
1359740552528,1.69971
1359740612528,1.66614
1359740672528,1.70554
1359740732528,1.71689
1359740792528,1.72824
1359740852528,1.69912
1359740912528,1.71828
1359740972528,1.70557
1359741032528,1.72406
1359741092528,1.70120
1359741152528,1.71120
1359741212528,1.71985
1359741272528,1.71190
1359741332528,1.70170
1359741392528,1.69850
1359741452528,1.71650
1359741512528,1.72846
1359741572528,1.72552
1359741632538,1.70988
1359741692538,1.69663
1359741752538,1.69390
1359741812538,1.71579
1359741872538,1.72603
1359741932538,1.71011
1359741992538,1.71379
1359742052538,1.68411
1359742112538,1.70969
1359742172538,1.72433